AAL1522 KPHL-KMSY

Flight info

Callsign AAL1522
Flight time N/A
Altitude 32000
Route STOEN REEFI EMI J48 CSN FANPO Q40 JAARE/N0461F340 Q40 NIOLA MERDN TRSSH1
Aircraft A321/M-SDE3FGHIRWY/LB1

Departure

Time 2026-05-06 22:25
Airport Philadelphia International Airport (KPHL)

Arrival

Time N/A
Airport Louis Armstrong New Orleans International Airport (KMSY)
Time Latitude Longitude Altitude Speed Heading
2026-05-06 22:11 39.87396 -75.24656 21 ft 0 kts 281°
2026-05-06 22:17 39.87394 -75.24641 25 ft 3 kts 278°
2026-05-06 22:18 39.87394 -75.24616 21 ft 3 kts 248°
2026-05-06 22:18 39.87404 -75.24594 24 ft 3 kts 217°
2026-05-06 22:18 39.87411 -75.24588 25 ft 0 kts 214°
2026-05-06 22:18 39.87414 -75.24585 24 ft 3 kts 214°
2026-05-06 22:19 39.87419 -75.24581 22 ft 0 kts 214°
2026-05-06 22:21 39.87371 -75.24584 22 ft 12 kts 162°
2026-05-06 22:22 39.87299 -75.24546 23 ft 11 kts 167°
2026-05-06 22:22 39.87218 -75.24508 23 ft 12 kts 137°
2026-05-06 22:22 39.87185 -75.24409 26 ft 12 kts 102°
2026-05-06 22:22 39.87164 -75.24282 26 ft 17 kts 101°
2026-05-06 22:23 39.87134 -75.24122 26 ft 19 kts 120°
2026-05-06 22:23 39.87021 -75.24059 25 ft 18 kts 165°
2026-05-06 22:23 39.86915 -75.23986 20 ft 18 kts 141°
2026-05-06 22:23 39.86835 -75.23928 18 ft 12 kts 180°
2026-05-06 22:24 39.86783 -75.23984 18 ft 1 kts 258°
2026-05-06 22:24 39.86782 -75.23987 17 ft 1 kts 258°
2026-05-06 22:24 39.86781 -75.23997 16 ft 0 kts 259°
2026-05-06 22:24 39.86732 -75.24261 18 ft 69 kts 255°
2026-05-06 22:25 39.86538 -75.25151 29 ft 132 kts 255°
2026-05-06 22:25 39.86281 -75.26477 279 ft 168 kts 254°
2026-05-06 22:25 39.85973 -75.28060 579 ft 191 kts 252°
2026-05-06 22:25 39.85614 -75.29838 767 ft 215 kts 253°
2026-05-06 22:26 39.85213 -75.31817 1006 ft 236 kts 252°
2026-05-06 22:26 39.84791 -75.33914 1550 ft 242 kts 253°
2026-05-06 22:26 39.84551 -75.36092 2280 ft 243 kts 263°
2026-05-06 22:26 39.84498 -75.38304 3056 ft 245 kts 266°
2026-05-06 22:27 39.84499 -75.40520 3762 ft 245 kts 268°
2026-05-06 22:27 39.84504 -75.42738 4477 ft 244 kts 268°
2026-05-06 22:27 39.84499 -75.44949 5183 ft 244 kts 267°
2026-05-06 22:27 39.84482 -75.47167 5840 ft 245 kts 267°
2026-05-06 22:28 39.84454 -75.49388 6434 ft 247 kts 267°
2026-05-06 22:28 39.84419 -75.51640 7009 ft 250 kts 267°
2026-05-06 22:28 39.84378 -75.53904 7629 ft 251 kts 267°
2026-05-06 22:28 39.84334 -75.56178 8260 ft 252 kts 267°
2026-05-06 22:29 39.84286 -75.58445 8845 ft 254 kts 267°
2026-05-06 22:29 39.84235 -75.60747 9419 ft 256 kts 267°
2026-05-06 22:29 39.84186 -75.63066 9955 ft 257 kts 267°
2026-05-06 22:29 39.84134 -75.65433 10248 ft 270 kts 267°
2026-05-06 22:30 39.84077 -75.67948 10370 ft 287 kts 267°
2026-05-06 22:30 39.84019 -75.70613 10494 ft 303 kts 267°
2026-05-06 22:30 39.83958 -75.73417 10688 ft 315 kts 267°
2026-05-06 22:30 39.83896 -75.76289 11133 ft 319 kts 267°
2026-05-06 22:31 39.83831 -75.79186 11640 ft 321 kts 266°
2026-05-06 22:31 39.83573 -75.82081 12129 ft 323 kts 261°
2026-05-06 22:31 39.83354 -75.84002 12446 ft 325 kts 261°
2026-05-06 22:31 39.83020 -75.86918 12950 ft 327 kts 261°
2026-05-06 22:32 39.82686 -75.89856 13460 ft 329 kts 261°
2026-05-06 22:32 39.82241 -75.93769 14054 ft 332 kts 261°
2026-05-06 22:32 39.81899 -75.96753 14525 ft 334 kts 261°
2026-05-06 22:32 39.81666 -75.98786 14838 ft 336 kts 261°
2026-05-06 22:33 39.81322 -76.01798 15293 ft 338 kts 261°
2026-05-06 22:33 39.80973 -76.04835 15743 ft 340 kts 261°
2026-05-06 22:33 39.80618 -76.07884 16189 ft 342 kts 261°
2026-05-06 22:33 39.80259 -76.10954 16629 ft 344 kts 261°
2026-05-06 22:34 39.79898 -76.14040 17065 ft 346 kts 261°
2026-05-06 22:34 39.79501 -76.17095 17474 ft 348 kts 256°
2026-05-06 22:34 39.78705 -76.20074 17856 ft 351 kts 246°
2026-05-06 22:34 39.77636 -76.22943 18261 ft 353 kts 246°
2026-05-06 22:35 39.76561 -76.25820 18618 ft 354 kts 246°
2026-05-06 22:35 39.75486 -76.28705 18969 ft 355 kts 245°
2026-05-06 22:35 39.74410 -76.31597 19330 ft 357 kts 246°
2026-05-06 22:35 39.73326 -76.34505 19705 ft 358 kts 246°
2026-05-06 22:36 39.72247 -76.37405 20061 ft 359 kts 245°
2026-05-06 22:36 39.71161 -76.40327 20406 ft 360 kts 246°
2026-05-06 22:36 39.70066 -76.43270 20741 ft 361 kts 245°
2026-05-06 22:36 39.68969 -76.46212 21094 ft 363 kts 245°
2026-05-06 22:37 39.67863 -76.49170 21430 ft 364 kts 245°
2026-05-06 22:37 39.66760 -76.52117 21764 ft 365 kts 245°
2026-05-06 22:37 39.65649 -76.55084 22113 ft 366 kts 245°
2026-05-06 22:37 39.64530 -76.58072 22464 ft 368 kts 245°
2026-05-06 22:38 39.63413 -76.61050 22800 ft 369 kts 245°
2026-05-06 22:38 39.62282 -76.64058 23124 ft 371 kts 245°
2026-05-06 22:38 39.61148 -76.67067 23435 ft 372 kts 245°
2026-05-06 22:38 39.60005 -76.70098 23696 ft 374 kts 245°
2026-05-06 22:39 39.58861 -76.73134 23948 ft 376 kts 245°
2026-05-06 22:39 39.57710 -76.76184 24208 ft 377 kts 245°
2026-05-06 22:39 39.56555 -76.79238 24461 ft 379 kts 245°
2026-05-06 22:39 39.55392 -76.82309 24707 ft 380 kts 245°
2026-05-06 22:40 39.54224 -76.85387 24947 ft 382 kts 245°
2026-05-06 22:40 39.53047 -76.88485 25197 ft 383 kts 245°
2026-05-06 22:40 39.51869 -76.91588 25442 ft 385 kts 245°
2026-05-06 22:40 39.50680 -76.94703 25675 ft 387 kts 243°
2026-05-06 22:41 39.47312 -77.00189 26131 ft 398 kts 224°
2026-05-06 22:41 39.45160 -77.02459 26358 ft 400 kts 223°
2026-05-06 22:41 39.42994 -77.04726 26583 ft 402 kts 223°
2026-05-06 22:42 39.40818 -77.07004 26800 ft 403 kts 224°
2026-05-06 22:42 39.38647 -77.09283 27026 ft 405 kts 224°
2026-05-06 22:42 39.36479 -77.11559 27238 ft 407 kts 224°
2026-05-06 22:42 39.34248 -77.13901 27453 ft 409 kts 224°
2026-05-06 22:43 39.32064 -77.16195 27659 ft 410 kts 224°
2026-05-06 22:43 39.29845 -77.18528 27876 ft 412 kts 224°
2026-05-06 22:43 39.27619 -77.20866 28074 ft 414 kts 224°
2026-05-06 22:43 39.25377 -77.23215 28263 ft 416 kts 224°
2026-05-06 22:44 39.23128 -77.25565 28456 ft 417 kts 224°
2026-05-06 22:44 39.20860 -77.27927 28640 ft 419 kts 224°
2026-05-06 22:44 39.18592 -77.30293 28819 ft 421 kts 224°
2026-05-06 22:44 39.16315 -77.32673 29001 ft 422 kts 224°
2026-05-06 22:45 39.14032 -77.35057 29165 ft 423 kts 224°
2026-05-06 22:45 39.11735 -77.37446 29316 ft 425 kts 224°
2026-05-06 22:45 39.09435 -77.39828 29531 ft 425 kts 224°
2026-05-06 22:45 39.07133 -77.42209 29760 ft 425 kts 224°
2026-05-06 22:46 39.04828 -77.44597 29973 ft 424 kts 224°
2026-05-06 22:46 39.02529 -77.46980 30131 ft 424 kts 224°
2026-05-06 22:46 39.00234 -77.49364 30317 ft 424 kts 224°
2026-05-06 22:46 38.97942 -77.51743 30508 ft 423 kts 225°
2026-05-06 22:47 38.95653 -77.54120 30692 ft 423 kts 225°
2026-05-06 22:47 38.93369 -77.56488 30883 ft 422 kts 225°
2026-05-06 22:47 38.91075 -77.58858 31064 ft 422 kts 225°
2026-05-06 22:47 38.88786 -77.61216 31257 ft 422 kts 225°
2026-05-06 22:48 38.86500 -77.63566 31453 ft 421 kts 225°
2026-05-06 22:48 38.84213 -77.65919 31658 ft 420 kts 225°
2026-05-06 22:48 38.81932 -77.68268 31824 ft 420 kts 225°
2026-05-06 22:49 38.77403 -77.72924 31888 ft 415 kts 225°
2026-05-06 22:49 38.72897 -77.77552 31872 ft 414 kts 225°
2026-05-06 22:50 38.68398 -77.82167 31871 ft 415 kts 225°
2026-05-06 22:50 38.64017 -77.86929 31865 ft 408 kts 233°
2026-05-06 22:51 38.60542 -77.92582 31873 ft 404 kts 238°
2026-05-06 22:51 38.57143 -77.98323 31877 ft 405 kts 238°
2026-05-06 22:52 38.53729 -78.04051 31875 ft 405 kts 238°
2026-05-06 22:52 38.50307 -78.09789 31874 ft 406 kts 238°
2026-05-06 22:53 38.46902 -78.15497 31872 ft 406 kts 238°
2026-05-06 22:53 38.43452 -78.21272 31870 ft 407 kts 238°
2026-05-06 22:54 38.40365 -78.27203 31865 ft 403 kts 243°
2026-05-06 22:54 38.37407 -78.33285 31872 ft 404 kts 243°
2026-05-06 22:55 38.34433 -78.39369 31862 ft 404 kts 243°
2026-05-06 22:55 38.31459 -78.45456 31876 ft 405 kts 243°
2026-05-06 22:56 38.28483 -78.51544 31875 ft 405 kts 243°
2026-05-06 22:56 38.26950 -78.54675 31909 ft 400 kts 244°
2026-05-06 22:56 38.25519 -78.57703 32017 ft 402 kts 244°
2026-05-06 22:57 38.24043 -78.60734 31876 ft 403 kts 243°
2026-05-06 22:57 38.21024 -78.66777 31884 ft 406 kts 242°